Radioactive Concentration measured by Seawater Radiation Monitor near Fukushima Daiichi Nuclear Power Station
Date,Time,Cs137(Bq/L),Cs134(Bq/L),Total β(Bq/L)
2016/10/25,00:00,1.2,0.14,ND
2016/10/25,00:10,1.2,0.14,ND
2016/10/25,00:20,1.2,0.14,ND
2016/10/25,00:30,1.2,0.14,ND
2016/10/25,00:40,1.2,0.13,ND
2016/10/25,00:50,1.2,0.15,ND
2016/10/25,01:00,1.2,0.15,ND
2016/10/25,01:10,1.2,0.16,ND
2016/10/25,01:20,1.2,0.16,ND
2016/10/25,01:30,1.2,0.16,ND
2016/10/25,01:40,1.2,0.16,ND
2016/10/25,01:50,1.3,0.15,ND
2016/10/25,02:00,1.3,0.15,ND
2016/10/25,02:10,1.3,0.15,ND
2016/10/25,02:20,1.3,0.16,ND
2016/10/25,02:30,1.3,0.15,ND
2016/10/25,02:40,1.3,0.16,ND
2016/10/25,02:50,1.3,0.16,ND
2016/10/25,03:00,1.2,0.16,ND
2016/10/25,03:10,1.2,0.16,ND
2016/10/25,03:20,1.2,0.16,ND
2016/10/25,03:30,1.2,0.16,9.5
2016/10/25,03:40,1.2,0.16,ND
2016/10/25,03:50,1.2,0.16,ND
2016/10/25,04:00,1.2,0.16,ND
2016/10/25,04:10,1.2,0.15,ND
2016/10/25,04:20,1.3,0.15,ND
2016/10/25,04:30,1.3,0.15,ND
2016/10/25,04:40,1.3,0.15,ND
2016/10/25,04:50,1.2,0.15,ND
2016/10/25,05:00,1.3,0.15,ND
2016/10/25,05:10,1.2,0.15,ND
2016/10/25,05:20,1.2,0.15,ND
2016/10/25,05:30,1.2,0.15,ND
2016/10/25,05:40,1.2,0.15,ND
2016/10/25,05:50,1.2,0.15,ND
2016/10/25,06:00,1.2,0.14,ND
2016/10/25,06:10,1.2,0.15,ND
2016/10/25,06:20,1.2,0.15,ND
2016/10/25,06:30,1.2,0.14,ND
2016/10/25,06:40,1.2,0.14,ND
2016/10/25,06:50,1.2,0.14,ND
2016/10/25,07:00,1.2,0.14,ND
2016/10/25,07:10,1.2,0.14,ND
2016/10/25,07:20,1.2,0.13,ND
2016/10/25,07:30,1.2,0.14,ND
2016/10/25,07:40,1.2,0.15,ND
2016/10/25,07:50,1.2,0.15,ND
2016/10/25,08:00,1.2,0.14,ND
2016/10/25,08:10,1.2,0.14,ND
2016/10/25,08:20,1.1,0.14,ND
2016/10/25,08:30,1.1,0.14,ND
2016/10/25,08:40,1.1,0.13,ND
2016/10/25,08:50,1.1,0.13,ND
2016/10/25,09:00,1.2,0.14,ND
2016/10/25,09:10,1.2,0.15,ND
2016/10/25,09:20,1.1,0.15,ND
2016/10/25,09:30,1.2,0.14,ND
2016/10/25,09:40,1.1,0.14,ND
2016/10/25,09:50,1.1,0.13,ND
2016/10/25,10:00,1.1,0.14,ND
2016/10/25,10:10,1.1,0.13,ND
2016/10/25,10:20,1.1,0.12,ND
2016/10/25,10:30,1.1,0.14,ND
2016/10/25,10:40,1.0,0.13,ND
2016/10/25,10:50,1.1,0.15,ND
2016/10/25,11:00,1.1,0.15,ND
2016/10/25,11:10,1.1,0.15,ND
2016/10/25,11:20,1.1,0.15,ND
2016/10/25,11:30,1.1,0.14,ND
2016/10/25,11:40,1.1,0.14,ND
2016/10/25,11:50,1.0,0.12,ND
2016/10/25,12:00,0.99,0.11,ND
2016/10/25,12:10,0.96,0.11,ND
2016/10/25,12:20,0.94,0.11,ND
2016/10/25,12:30,0.95,0.11,ND
2016/10/25,12:40,0.94,0.12,ND
2016/10/25,12:50,0.94,0.13,ND
2016/10/25,13:00,0.97,0.13,ND
2016/10/25,13:10,0.97,0.13,ND
2016/10/25,13:20,0.99,0.12,ND
2016/10/25,13:30,0.99,0.13,ND
2016/10/25,13:40,1.0,0.12,ND
2016/10/25,13:50,1.0,0.11,ND
2016/10/25,14:00,0.98,0.15,ND
2016/10/25,14:10,0.99,0.11,ND
2016/10/25,14:20,0.97,0.12,ND
2016/10/25,14:30,0.98,0.12,ND
2016/10/25,14:40,0.98,0.11,ND
2016/10/25,14:50,0.99,0.12,ND
2016/10/25,15:00,0.96,0.12,ND
2016/10/25,15:10,0.96,0.11,ND
2016/10/25,15:20,0.93,0.10,ND
2016/10/25,15:30,0.92,0.092,ND
2016/10/25,15:40,0.92,0.097,ND
2016/10/25,15:50,0.94,0.10,ND
2016/10/25,16:00,0.99,0.12,ND
2016/10/25,16:10,1.0,0.13,ND
2016/10/25,16:20,1.1,0.12,ND
2016/10/25,16:30,1.1,0.13,ND
2016/10/25,16:40,1.1,0.12,ND
2016/10/25,16:50,1.2,0.12,ND
2016/10/25,17:00,1.1,0.12,ND
2016/10/25,17:10,1.1,0.12,ND
2016/10/25,17:20,1.1,0.13,ND
2016/10/25,17:30,1.0,0.12,ND
2016/10/25,17:40,0.97,0.12,ND
2016/10/25,17:50,0.94,0.12,ND
2016/10/25,18:00,0.92,0.11,ND
2016/10/25,18:10,0.91,0.11,ND
2016/10/25,18:20,0.91,0.097,ND
2016/10/25,18:30,0.90,0.079,ND
2016/10/25,18:40,0.91,0.086,ND
2016/10/25,18:50,0.90,0.083,ND
2016/10/25,19:00,0.90,0.090,ND
2016/10/25,19:10,0.88,0.094,ND
2016/10/25,19:20,0.88,0.10,ND
2016/10/25,19:30,0.87,0.11,ND
2016/10/25,19:40,0.82,0.094,ND
2016/10/25,19:50,0.81,0.088,ND
2016/10/25,20:00,0.80,0.087,ND
2016/10/25,20:10,0.81,0.081,ND
2016/10/25,20:20,0.84,0.074,ND
2016/10/25,20:30,0.84,0.074,ND
2016/10/25,20:40,0.81,0.080,ND
2016/10/25,20:50,0.79,0.093,ND
2016/10/25,21:00,0.80,0.087,ND
2016/10/25,21:10,0.79,0.080,ND
2016/10/25,21:20,0.76,0.082,ND
2016/10/25,21:30,0.77,0.072,ND
2016/10/25,21:40,0.76,0.081,ND
2016/10/25,21:50,0.77,0.074,ND
2016/10/25,22:00,0.77,0.10,ND
2016/10/25,22:10,0.77,0.085,ND
2016/10/25,22:20,0.77,0.089,ND
2016/10/25,22:30,0.76,0.090,ND
2016/10/25,22:40,0.78,0.082,ND
2016/10/25,22:50,0.79,0.082,ND
2016/10/25,23:00,0.79,0.085,ND
2016/10/25,23:10,0.81,0.077,ND
2016/10/25,23:20,0.78,0.092,ND
2016/10/25,23:30,0.79,0.091,ND
2016/10/25,23:40,0.80,0.094,ND
2016/10/25,23:50,0.80,0.090,ND
